DUZEAR1 KGLS-KHOU

Flight info

Callsign DUZEAR1
Flight time N/A
Altitude 4500
Route KGLS/36 N0240F045 DCT SEPOY DCT VPTRK DCT VPSND DCT CARCO DCT KHOU/04
Aircraft PC12/L-SDE2FGIRWY/SB1

Departure

Time 2026-04-19 18:33
Airport Scholes International At Galveston Airport (KGLS)

Arrival

Time N/A
Airport William P. Hobby Airport (KHOU)
Time Latitude Longitude Altitude Speed Heading
2026-04-19 18:01 29.26826 -94.85609 13 ft 0 kts 360°
2026-04-19 18:30 29.26834 -94.85606 13 ft 4 kts 14°
2026-04-19 18:30 29.26843 -94.85687 13 ft 13 kts 274°
2026-04-19 18:31 29.26776 -94.85743 15 ft 22 kts 181°
2026-04-19 18:31 29.26582 -94.85746 13 ft 34 kts 181°
2026-04-19 18:31 29.26405 -94.85771 14 ft 22 kts 201°
2026-04-19 18:31 29.26231 -94.85680 15 ft 35 kts 140°
2026-04-19 18:32 29.26107 -94.85563 15 ft 23 kts 141°
2026-04-19 18:32 29.25933 -94.85566 11 ft 26 kts 233°
2026-04-19 18:32 29.25807 -94.85764 14 ft 33 kts 233°
2026-04-19 18:32 29.25735 -94.85907 15 ft 26 kts 276°
2026-04-19 18:33 29.25961 -94.85933 14 ft 63 kts
2026-04-19 18:33 29.26595 -94.85923 74 ft 111 kts
2026-04-19 18:33 29.27457 -94.85950 371 ft 140 kts 359°
2026-04-19 18:33 29.28431 -94.86012 1117 ft 134 kts 10°
2026-04-19 18:34 29.29288 -94.85918 2262 ft 116 kts 13°
2026-04-19 18:34 29.30126 -94.85871 3034 ft 128 kts 13°
2026-04-19 18:34 29.31087 -94.86137 3679 ft 153 kts 341°
2026-04-19 18:34 29.31983 -94.86936 4265 ft 179 kts 313°
2026-04-19 18:35 29.32551 -94.88310 4502 ft 191 kts 288°
2026-04-19 18:35 29.32876 -94.89656 4499 ft 180 kts 287°
2026-04-19 18:35 29.33266 -94.91184 4516 ft 216 kts 287°
2026-04-19 18:35 29.33714 -94.92898 4514 ft 231 kts 288°
2026-04-19 18:36 29.34022 -94.94080 4513 ft 235 kts 288°
2026-04-19 18:36 29.34495 -94.95885 4511 ft 238 kts 287°
2026-04-19 18:36 29.34660 -94.96517 4508 ft 238 kts 288°
2026-04-19 18:36 29.35148 -94.98385 4508 ft 239 kts 288°
2026-04-19 18:37 29.35464 -94.99591 4508 ft 238 kts 288°
2026-04-19 18:37 29.35937 -95.01410 4509 ft 239 kts 288°
2026-04-19 18:37 29.36416 -95.03239 4506 ft 239 kts 288°
2026-04-19 18:37 29.36891 -95.05065 4505 ft 239 kts 288°
2026-04-19 18:38 29.37366 -95.06892 4508 ft 240 kts 288°